CW5444 Weather Reports


time (UTC)temp
C
wind
direction
speed
KPH
gust
KPH
rain 1hr
cm
rain 24hr
cm
rain mn
cm
humidity
%
barometer
mb
20260504140453 10 177 6.4 16.1 0.00 0.00 0.00 74 1019.1
20260504130417 10 195 4.8 9.7 0.00 0.00 0.00 72 1018.2
20260504110429 1 235 3.2 4.8 0.00 0.00 0.00 88 1016.7
20260504100432 1 195 0.0 0.0 0.00 0.00 0.00 88 1017.3
20260504081423 1 195 0.0 0.0 0.00 0.00 0.00 87 1017.2
20260504080430 1 195 0.0 0.0 0.00 0.00 0.00 87 1017.1
20260504050452 2 195 0.0 0.0 0.00 0.00 0.00 85 1017.5
20260504045417 2 195 0.0 0.0 0.00 0.00 0.00 84 1017.4
20260504044426 2 195 0.0 0.0 0.00 0.00 0.00 83 1017.5
20260504043432 2 195 0.0 0.0 0.00 0.00 0.00 82 1017.4
20260504042420 2 195 0.0 0.0 0.00 0.00 0.00 82 1017.3
20260504041427 2 195 0.0 0.0 0.00 0.00 0.00 82 1017.3
20260504040434 3 195 0.0 0.0 0.00 0.00 0.00 82 1017.4
20260504035421 3 195 0.0 0.0 0.00 0.00 0.00 81 1017.4
20260504034428 3 195 0.0 0.0 0.00 0.00 0.00 81 1017.4
20260504033452 3 195 0.0 0.0 0.00 0.00 0.00 80 1017.2
20260504032416 3 195 0.0 0.0 0.00 0.00 0.00 80 1017.3
20260504031424 3 195 0.0 0.0 0.00 0.00 0.00 79 1017.2
20260504030434 3 195 0.0 0.0 0.00 0.00 0.00 77 1017.0
20260504025422 4 195 0.0 0.0 0.00 0.00 0.00 77 1017.4
20260504024429 4 195 0.0 0.0 0.00 0.00 0.00 76 1017.3
20260504023417 5 195 0.0 0.0 0.00 0.00 0.00 75 1017.3
20260504022423 5 195 0.0 0.0 0.00 0.00 0.00 74 1017.0
20260504021428 5 195 0.0 0.0 0.00 0.00 0.00 73 1017.0
20260504020431 5 195 0.0 0.0 0.00 0.00 0.00 72 1016.9
20260504015417 6 195 0.0 0.0 0.00 0.00 0.00 70 1016.9
20260504014422 6 195 0.0 0.0 0.00 0.00 0.00 70 1017.0
20260504013448 6 195 0.0 0.0 0.00 0.00 0.00 68 1016.8
20260504012433 7 195 0.0 0.0 0.00 0.00 0.00 67 1016.8
20260504011425 7 195 0.0 0.0 0.00 0.00 0.00 64 1016.7
20260504010431 8 195 0.0 0.0 0.00 0.00 0.00 64 1016.7
20260504005429 8 195 0.0 0.0 0.00 0.00 0.00 60 1016.6
20260504004434 10 195 0.0 0.0 0.00 0.00 0.00 58 1016.3
20260504003421 10 195 0.0 0.0 0.00 0.00 0.00 56 1016.2
20260504002426 11 195 0.0 0.0 0.00 0.00 0.00 54 1016.1
20260504001452 12 195 0.0 0.0 0.00 0.00 0.00 51 1016.2
20260504000416 12 195 0.0 1.6 0.00 0.00 0.00 47 1016.1
20260503235420 12 195 0.0 3.2 0.00 0.00 0.00 47 1016.1
20260503234424 13 195 1.6 11.3 0.00 0.00 0.00 45 1016.1
20260503233449 13 174 3.2 9.7 0.00 0.00 0.00 40 1016.2
20260503232416 14 190 4.8 19.3 0.00 0.00 0.00 38 1016.3
20260503231424 15 193 4.8 11.3 0.00 0.00 0.00 38 1016.3
20260503230433 15 202 4.8 14.5 0.00 0.00 0.00 37 1016.3
20260503225423 15 178 6.4 14.5 0.00 0.00 0.00 36 1016.3
20260503224432 15 152 8.0 12.9 0.00 0.00 0.00 37 1016.5
20260503223420 15 201 4.8 14.5 0.00 0.00 0.00 37 1016.5
20260503222446 15 150 8.0 19.3 0.00 0.00 0.00 35 1016.6
20260503221433 15 161 6.4 12.9 0.00 0.00 0.00 36 1016.6
20260503220422 15 178 9.7 20.9 0.00 0.00 0.00 34 1016.7
20260503215428 15 148 8.0 14.5 0.00 0.00 0.00 36 1016.7
20260503214417 15 191 8.0 22.5 0.00 0.00 0.00 39 1016.7
20260503213422 15 192 9.7 22.5 0.00 0.00 0.00 38 1016.8
20260503212429 15 148 4.8 17.7 0.00 0.00 0.00 38 1016.8
20260503211419 15 192 6.4 14.5 0.00 0.00 0.00 40 1016.9
20260503210426 15 225 9.7 17.7 0.00 0.00 0.00 38 1016.9
20260503205453 15 186 6.4 16.1 0.00 0.00 0.00 39 1017.0
20260503204417 15 186 9.7 19.3 0.00 0.00 0.00 38 1017.0
20260503203425 16 125 4.8 14.5 0.00 0.00 0.00 39 1017.1
20260503202429 15 205 9.7 16.1 0.00 0.00 0.00 37 1017.3
20260503201437 15 209 8.0 17.7 0.00 0.00 0.00 39 1017.4
20260503200422 15 194 4.8 16.1 0.00 0.00 0.00 37 1017.7
20260503195427 15 180 8.0 16.1 0.00 0.00 0.00 36 1017.8
20260503194432 15 159 6.4 16.1 0.00 0.00 0.00 36 1018.1
20260503193420 15 212 8.0 17.7 0.00 0.00 0.00 36 1018.1
20260503192445 15 163 8.0 17.7 0.00 0.00 0.00 39 1018.1
20260503191430 14 146 8.0 16.1 0.00 0.00 0.00 35 1018.3
20260503190418 14 171 6.4 19.3 0.00 0.00 0.00 41 1018.5
20260503185425 14 161 8.0 19.3 0.00 0.00 0.00 40 1018.6
20260503184431 14 163 8.0 16.1 0.00 0.00 0.00 41 1018.6
20260503183417 13 205 8.0 16.1 0.00 0.00 0.00 35 1018.8
20260503182422 13 157 9.7 16.1 0.00 0.00 0.00 37 1019.0
20260503181427 13 132 3.2 14.5 0.00 0.00 0.00 40 1019.1
20260503180455 13 187 8.0 20.9 0.00 0.00 0.00 40 1019.2
20260503175417 13 204 6.4 16.1 0.00 0.00 0.00 42 1019.1
20260503174437 12 176 4.8 11.3 0.00 0.00 0.00 44 1019.2
20260503173416 12 192 9.7 17.7 0.00 0.00 0.00 41 1019.4
20260503172416 12 145 4.8 17.7 0.00 0.00 0.00 43 1019.6
20260503171416 12 196 4.8 11.3 0.00 0.00 0.00 46 1019.6
20260503170420 12 155 3.2 12.9 0.00 0.00 0.00 44 1019.8
20260503150422 8 211 6.4 12.9 0.00 0.00 0.00 49 1020.6